Time,TemperatureF,DewpointF,PressureIn,WindDirection,WindDirectionDegrees,WindSpeedMPH,WindSpeedGustMPH,Humidity,HourlyPrecipIn,Conditions,Clouds,dailyrainin,SoftwareType,DateUTC
2013-03-16 00:03:00,33.0,30.0,29.63,WSW,254,2.0,8.0,87,0.00,,,0.00,,2013-03-16 04:03:00,
2013-03-16 00:13:00,33.0,30.0,29.63,WSW,254,2.0,8.0,87,0.00,,,0.00,,2013-03-16 04:13:00,
2013-03-16 00:23:00,33.0,30.0,29.64,SW,236,6.0,10.0,87,0.00,,,0.00,,2013-03-16 04:23:00,
2013-03-16 00:33:00,33.0,29.0,29.65,WNW,291,7.0,17.0,86,0.00,,,0.00,,2013-03-16 04:33:00,
2013-03-16 00:43:00,33.0,29.0,29.65,WNW,291,7.0,17.0,86,0.00,,,0.00,,2013-03-16 04:43:00,
2013-03-16 00:52:00,33.0,29.0,29.67,NW,319,3.0,17.0,86,0.00,,,0.00,,2013-03-16 04:52:00,
2013-03-16 01:02:00,32.0,28.0,29.67,NNW,338,3.0,12.0,86,0.00,,,0.00,,2013-03-16 05:02:00,
2013-03-16 01:12:00,32.0,28.0,29.67,NNW,338,3.0,12.0,86,0.00,,,0.00,,2013-03-16 05:12:00,
2013-03-16 01:22:00,32.0,28.0,29.68,NNW,348,4.0,12.0,86,0.00,,,0.00,,2013-03-16 05:22:00,
2013-03-16 01:32:00,31.0,26.0,29.70,West,268,2.0,11.0,81,0.00,,,0.00,,2013-03-16 05:32:00,
2013-03-16 01:42:00,31.0,26.0,29.70,West,268,2.0,11.0,81,0.00,,,0.00,,2013-03-16 05:42:00,
2013-03-16 01:52:00,31.0,26.0,29.70,WNW,294,7.0,11.0,80,0.00,,,0.00,,2013-03-16 05:52:00,
2013-03-16 02:02:00,31.0,25.0,29.70,North,349,3.0,10.0,78,0.00,,,0.00,,2013-03-16 06:02:00,
2013-03-16 02:12:00,31.0,25.0,29.70,North,349,3.0,10.0,78,0.00,,,0.00,,2013-03-16 06:12:00,
2013-03-16 02:22:00,31.0,25.0,29.71,WSW,253,4.0,12.0,78,0.00,,,0.00,,2013-03-16 06:22:00,
2013-03-16 02:32:00,31.0,25.0,29.72,West,278,7.0,12.0,78,0.00,,,0.00,,2013-03-16 06:32:00,
2013-03-16 02:42:00,31.0,25.0,29.72,West,278,7.0,12.0,78,0.00,,,0.00,,2013-03-16 06:42:00,
2013-03-16 02:52:00,30.0,24.0,29.72,West,281,3.0,12.0,78,0.00,,,0.00,,2013-03-16 06:52:00,
2013-03-16 03:02:00,30.0,25.0,29.73,NW,304,3.0,15.0,80,0.00,,,0.00,,2013-03-16 07:02:00,
2013-03-16 03:12:00,30.0,25.0,29.73,NW,304,3.0,15.0,80,0.00,,,0.00,,2013-03-16 07:12:00,
2013-03-16 03:22:00,30.0,25.0,29.73,WNW,288,0.0,15.0,83,0.00,,,0.00,,2013-03-16 07:22:00,
2013-03-16 03:32:00,30.0,25.0,29.74,NNW,340,3.0,10.0,83,0.00,,,0.00,,2013-03-16 07:32:00,
2013-03-16 03:42:00,30.0,25.0,29.74,NNW,340,3.0,10.0,83,0.00,,,0.00,,2013-03-16 07:42:00,
2013-03-16 03:52:00,29.0,25.0,29.74,WNW,289,3.0,10.0,84,0.00,,,0.00,,2013-03-16 07:52:00,
2013-03-16 04:03:00,29.0,25.0,29.74,West,281,4.0,10.0,86,0.00,,,0.00,,2013-03-16 08:03:00,
2013-03-16 04:12:00,29.0,25.0,29.74,West,281,4.0,10.0,86,0.00,,,0.00,,2013-03-16 08:12:00,
2013-03-16 04:23:00,29.0,25.0,29.75,WNW,285,1.0,10.0,86,0.00,,,0.00,,2013-03-16 08:23:00,
2013-03-16 04:33:00,28.0,25.0,29.76,North,352,0.0,7.0,87,0.00,,,0.00,,2013-03-16 08:33:00,
2013-03-16 04:42:00,28.0,25.0,29.76,North,352,0.0,7.0,87,0.00,,,0.00,,2013-03-16 08:42:00,
2013-03-16 04:52:00,28.0,25.0,29.76,NNW,334,3.0,7.0,87,0.00,,,0.00,,2013-03-16 08:52:00,
2013-03-16 05:02:00,28.0,25.0,29.77,WNW,292,0.0,6.0,88,0.00,,,0.00,,2013-03-16 09:02:00,
2013-03-16 05:12:00,28.0,25.0,29.77,WNW,292,0.0,6.0,88,0.00,,,0.00,,2013-03-16 09:12:00,
2013-03-16 05:22:00,28.0,25.0,29.78,West,260,0.0,7.0,88,0.00,,,0.00,,2013-03-16 09:22:00,
2013-03-16 05:33:00,27.0,24.0,29.79,West,277,0.0,6.0,89,0.00,,,0.00,,2013-03-16 09:33:00,
2013-03-16 05:42:00,27.0,24.0,29.79,West,277,0.0,6.0,89,0.00,,,0.00,,2013-03-16 09:42:00,
2013-03-16 05:52:00,27.0,24.0,29.79,NW,308,3.0,6.0,89,0.00,,,0.00,,2013-03-16 09:52:00,
2013-03-16 06:03:00,27.0,24.0,29.80,WNW,289,2.0,7.0,89,0.00,,,0.00,,2013-03-16 10:03:00,
2013-03-16 06:12:00,27.0,24.0,29.80,WNW,289,2.0,7.0,89,0.00,,,0.00,,2013-03-16 10:12:00,
2013-03-16 06:23:00,27.0,24.0,29.80,West,274,4.0,12.0,89,0.00,,,0.00,,2013-03-16 10:23:00,
2013-03-16 06:32:00,27.0,24.0,29.81,WNW,292,3.0,9.0,89,0.00,,,0.00,,2013-03-16 10:32:00,
2013-03-16 06:42:00,27.0,24.0,29.81,WNW,292,3.0,9.0,89,0.00,,,0.00,,2013-03-16 10:42:00,
2013-03-16 06:52:00,27.0,24.0,29.81,WSW,250,3.0,9.0,88,0.00,,,0.00,,2013-03-16 10:52:00,
2013-03-16 07:03:00,27.0,24.0,29.82,West,265,1.0,5.0,88,0.00,,,0.00,,2013-03-16 11:03:00,
2013-03-16 07:12:00,27.0,24.0,29.82,West,265,1.0,5.0,88,0.00,,,0.00,,2013-03-16 11:12:00,
2013-03-16 07:22:00,27.0,24.0,29.82,West,264,0.0,5.0,89,0.00,,,0.00,,2013-03-16 11:22:00,
2013-03-16 07:33:00,26.0,23.0,29.82,West,273,4.0,9.0,88,0.00,,,0.00,,2013-03-16 11:33:00,
2013-03-16 07:43:00,26.0,23.0,29.82,West,273,4.0,9.0,88,0.00,,,0.00,,2013-03-16 11:43:00,
2013-03-16 07:52:00,27.0,24.0,29.82,West,267,0.0,9.0,89,0.00,,,0.00,,2013-03-16 11:52:00,
2013-03-16 08:02:00,27.0,24.0,29.83,WSW,242,4.0,9.0,88,0.00,,,0.00,,2013-03-16 12:02:00,
2013-03-16 08:12:00,27.0,24.0,29.83,WSW,242,4.0,9.0,88,0.00,,,0.00,,2013-03-16 12:12:00,
2013-03-16 08:22:00,27.0,24.0,29.83,NW,312,1.0,9.0,87,0.00,,,0.00,,2013-03-16 12:22:00,
2013-03-16 08:32:00,28.0,24.0,29.83,NW,312,3.0,7.0,86,0.00,,,0.00,,2013-03-16 12:32:00,
2013-03-16 08:42:00,28.0,24.0,29.83,NW,312,3.0,7.0,86,0.00,,,0.00,,2013-03-16 12:42:00,
2013-03-16 08:52:00,28.0,24.0,29.83,WSW,256,0.0,10.0,85,0.00,,,0.00,,2013-03-16 12:52:00,
2013-03-16 09:02:00,29.0,25.0,29.83,NNW,329,3.0,12.0,84,0.00,,,0.00,,2013-03-16 13:02:00,
2013-03-16 09:12:00,29.0,25.0,29.83,NNW,329,3.0,12.0,84,0.00,,,0.00,,2013-03-16 13:12:00,
2013-03-16 09:22:00,29.0,24.0,29.83,NNW,331,5.0,12.0,82,0.00,,,0.00,,2013-03-16 13:22:00,
2013-03-16 09:32:00,30.0,25.0,29.83,NW,319,9.0,10.0,81,0.00,,,0.00,,2013-03-16 13:32:00,
2013-03-16 09:42:00,30.0,25.0,29.83,NW,319,9.0,10.0,81,0.00,,,0.00,,2013-03-16 13:42:00,
2013-03-16 09:52:00,30.0,25.0,29.84,NNW,344,3.0,10.0,80,0.00,,,0.00,,2013-03-16 13:52:00,
2013-03-16 10:03:00,31.0,26.0,29.84,WSW,246,3.0,10.0,80,0.00,,,0.00,,2013-03-16 14:03:00,
2013-03-16 10:12:00,31.0,26.0,29.84,WSW,246,3.0,10.0,80,0.00,,,0.00,,2013-03-16 14:12:00,
2013-03-16 10:22:00,31.0,25.0,29.83,NW,311,4.0,10.0,78,0.00,,,0.00,,2013-03-16 14:22:00,
2013-03-16 10:32:00,32.0,26.0,29.83,NNW,337,3.0,12.0,77,0.00,,,0.00,,2013-03-16 14:32:00,
2013-03-16 10:42:00,32.0,26.0,29.83,NNW,337,3.0,12.0,77,0.00,,,0.00,,2013-03-16 14:42:00,
2013-03-16 10:52:00,32.0,26.0,29.84,WNW,283,8.0,12.0,77,0.00,,,0.00,,2013-03-16 14:52:00,
2013-03-16 11:03:00,34.0,27.0,29.83,WSW,253,3.0,9.0,75,0.00,,,0.00,,2013-03-16 15:03:00,
2013-03-16 11:12:00,34.0,27.0,29.83,WSW,253,3.0,9.0,75,0.00,,,0.00,,2013-03-16 15:12:00,
2013-03-16 11:23:00,35.0,27.0,29.83,North,0,5.0,9.0,73,0.00,,,0.00,,2013-03-16 15:23:00,
2013-03-16 11:33:00,34.0,26.0,29.83,WNW,292,10.0,10.0,72,0.00,,,0.00,,2013-03-16 15:33:00,
2013-03-16 11:43:00,34.0,26.0,29.83,WNW,292,10.0,10.0,72,0.00,,,0.00,,2013-03-16 15:43:00,
2013-03-16 11:53:00,34.0,26.0,29.82,NNW,342,4.0,10.0,72,0.00,,,0.00,,2013-03-16 15:53:00,
2013-03-16 12:03:00,34.0,26.0,29.82,SW,221,2.0,9.0,72,0.00,,,0.00,,2013-03-16 16:03:00,
2013-03-16 12:12:00,34.0,26.0,29.82,SW,221,2.0,9.0,72,0.00,,,0.00,,2013-03-16 16:12:00,
2013-03-16 12:23:00,35.0,27.0,29.82,WSW,249,2.0,9.0,72,0.00,,,0.00,,2013-03-16 16:23:00,
2013-03-16 12:33:00,34.0,25.0,29.82,NW,316,2.0,6.0,70,0.00,,,0.00,,2013-03-16 16:33:00,
2013-03-16 12:42:00,34.0,25.0,29.82,NW,316,2.0,6.0,70,0.00,,,0.00,,2013-03-16 16:42:00,
2013-03-16 12:53:00,35.0,27.0,29.82,WSW,252,2.0,11.0,71,0.00,,,0.00,,2013-03-16 16:53:00,
2013-03-16 13:03:00,36.0,27.0,29.82,West,267,1.0,10.0,69,0.00,,,0.00,,2013-03-16 17:03:00,
2013-03-16 13:13:00,36.0,27.0,29.82,West,267,1.0,10.0,69,0.00,,,0.00,,2013-03-16 17:13:00,
2013-03-16 13:23:00,36.0,27.0,29.81,WSW,247,3.0,10.0,70,0.00,,,0.00,,2013-03-16 17:23:00,
2013-03-16 13:33:00,36.0,26.0,29.80,SSW,207,2.0,10.0,68,0.00,,,0.00,,2013-03-16 17:33:00,
2013-03-16 13:42:00,36.0,26.0,29.80,SSW,207,2.0,10.0,68,0.00,,,0.00,,2013-03-16 17:42:00,
2013-03-16 13:52:00,37.0,28.0,29.80,SW,220,3.0,10.0,69,0.00,,,0.00,,2013-03-16 17:52:00,
2013-03-16 14:03:00,38.0,28.0,29.79,West,260,5.0,10.0,66,0.00,,,0.00,,2013-03-16 18:03:00,
2013-03-16 14:13:00,38.0,28.0,29.79,West,260,5.0,10.0,66,0.00,,,0.00,,2013-03-16 18:13:00,
2013-03-16 14:23:00,37.0,27.0,29.79,WSW,243,3.0,10.0,66,0.00,,,0.00,,2013-03-16 18:23:00,
2013-03-16 14:33:00,37.0,26.0,29.80,WNW,289,4.0,7.0,65,0.00,,,0.00,,2013-03-16 18:33:00,
2013-03-16 14:43:00,37.0,26.0,29.80,WNW,289,4.0,7.0,65,0.00,,,0.00,,2013-03-16 18:43:00,
2013-03-16 14:52:00,36.0,25.0,29.80,NW,320,6.0,10.0,64,0.00,,,0.00,,2013-03-16 18:52:00,
2013-03-16 15:02:00,36.0,25.0,29.78,WSW,248,3.0,10.0,63,0.00,,,0.00,,2013-03-16 19:02:00,
2013-03-16 15:12:00,36.0,25.0,29.78,WSW,248,3.0,10.0,63,0.00,,,0.00,,2013-03-16 19:12:00,
2013-03-16 15:22:00,37.0,26.0,29.79,NW,324,7.0,10.0,65,0.00,,,0.00,,2013-03-16 19:22:00,
2013-03-16 15:33:00,37.0,25.0,29.80,NNW,342,3.0,10.0,62,0.00,,,0.00,,2013-03-16 19:33:00,
2013-03-16 15:42:00,37.0,25.0,29.80,NNW,342,3.0,10.0,62,0.00,,,0.00,,2013-03-16 19:42:00,
2013-03-16 15:52:00,37.0,26.0,29.79,WNW,283,4.0,10.0,63,0.00,,,0.00,,2013-03-16 19:52:00,
2013-03-16 16:02:00,36.0,25.0,29.80,WSW,244,0.0,10.0,64,0.00,,,0.00,,2013-03-16 20:02:00,
2013-03-16 16:12:00,36.0,25.0,29.80,WSW,244,0.0,10.0,64,0.00,,,0.00,,2013-03-16 20:12:00,
2013-03-16 16:22:00,36.0,25.0,29.80,NW,320,5.0,10.0,64,0.00,,,0.00,,2013-03-16 20:22:00,
2013-03-16 16:33:00,36.0,25.0,29.80,West,280,2.0,10.0,64,0.00,,,0.00,,2013-03-16 20:33:00,
2013-03-16 16:42:00,36.0,25.0,29.80,West,280,2.0,10.0,64,0.00,,,0.00,,2013-03-16 20:42:00,
2013-03-16 16:52:00,36.0,25.0,29.79,West,280,2.0,10.0,65,0.00,,,0.00,,2013-03-16 20:52:00,
2013-03-16 17:02:00,36.0,25.0,29.79,NW,323,3.0,6.0,65,0.00,,,0.00,,2013-03-16 21:02:00,
2013-03-16 17:12:00,36.0,25.0,29.79,NW,323,3.0,6.0,65,0.00,,,0.00,,2013-03-16 21:12:00,
2013-03-16 17:22:00,36.0,25.0,29.78,WSW,257,4.0,6.0,65,0.00,,,0.00,,2013-03-16 21:22:00,
2013-03-16 17:33:00,36.0,25.0,29.78,North,357,3.0,6.0,63,0.00,,,0.00,,2013-03-16 21:33:00,
2013-03-16 17:43:00,36.0,25.0,29.78,North,357,3.0,6.0,63,0.00,,,0.00,,2013-03-16 21:43:00,
2013-03-16 17:52:00,36.0,25.0,29.78,WNW,299,0.0,6.0,64,0.00,,,0.00,,2013-03-16 21:52:00,
2013-03-16 18:03:00,36.0,25.0,29.78,NW,320,3.0,7.0,64,0.00,,,0.00,,2013-03-16 22:03:00,
2013-03-16 18:13:00,36.0,25.0,29.78,NW,320,3.0,7.0,64,0.00,,,0.00,,2013-03-16 22:13:00,
2013-03-16 18:23:00,35.0,24.0,29.79,West,272,1.0,7.0,64,0.00,,,0.00,,2013-03-16 22:23:00,
2013-03-16 18:33:00,35.0,24.0,29.78,NW,308,0.0,3.0,65,0.00,,,0.00,,2013-03-16 22:33:00,
2013-03-16 18:42:00,35.0,24.0,29.78,NW,308,0.0,3.0,65,0.00,,,0.00,,2013-03-16 22:42:00,
2013-03-16 18:52:00,35.0,24.0,29.78,WNW,288,2.0,4.0,64,0.00,,,0.00,,2013-03-16 22:52:00,
2013-03-16 19:02:00,34.0,24.0,29.79,WNW,293,0.0,4.0,66,0.00,,,0.00,,2013-03-16 23:02:00,
2013-03-16 19:13:00,34.0,24.0,29.79,WNW,293,0.0,4.0,66,0.00,,,0.00,,2013-03-16 23:13:00,
2013-03-16 19:23:00,34.0,25.0,29.79,WNW,293,0.0,4.0,70,0.00,,,0.00,,2013-03-16 23:23:00,
2013-03-16 19:33:00,33.0,24.0,29.80,WNW,293,1.0,2.0,68,0.00,,,0.00,,2013-03-16 23:33:00,
2013-03-16 19:42:00,33.0,24.0,29.80,WNW,293,1.0,2.0,68,0.00,,,0.00,,2013-03-16 23:42:00,
2013-03-16 19:52:00,33.0,24.0,29.80,WNW,293,0.0,2.0,69,0.00,,,0.00,,2013-03-16 23:52:00,
2013-03-16 20:02:00,33.0,25.0,29.81,WNW,293,0.0,0.0,71,0.00,,,0.00,,2013-03-17 00:02:00,
2013-03-16 20:12:00,33.0,25.0,29.81,WNW,293,0.0,0.0,71,0.00,,,0.00,,2013-03-17 00:12:00,
2013-03-16 20:22:00,33.0,25.0,29.82,WNW,293,0.0,2.0,71,0.00,,,0.00,,2013-03-17 00:22:00,
2013-03-16 20:33:00,32.0,23.0,29.83,WNW,293,0.0,3.0,69,0.00,,,0.00,,2013-03-17 00:33:00,
2013-03-16 20:42:00,32.0,23.0,29.83,WNW,293,0.0,3.0,69,0.00,,,0.00,,2013-03-17 00:42:00,
2013-03-16 20:52:00,32.0,24.0,29.83,WNW,293,0.0,3.0,71,0.00,,,0.00,,2013-03-17 00:52:00,
2013-03-16 21:02:00,32.0,24.0,29.83,North,353,2.0,6.0,71,0.00,,,0.00,,2013-03-17 01:02:00,
2013-03-16 21:12:00,32.0,24.0,29.83,North,353,2.0,6.0,71,0.00,,,0.00,,2013-03-17 01:12:00,
2013-03-16 21:22:00,32.0,24.0,29.84,North,353,0.0,6.0,71,0.00,,,0.00,,2013-03-17 01:22:00,
2013-03-16 21:32:00,32.0,24.0,29.85,North,353,0.0,0.0,71,0.00,,,0.00,,2013-03-17 01:32:00,
2013-03-16 21:42:00,32.0,24.0,29.85,North,353,0.0,0.0,71,0.00,,,0.00,,2013-03-17 01:42:00,
2013-03-16 21:52:00,32.0,24.0,29.85,North,353,0.0,0.0,71,0.00,,,0.00,,2013-03-17 01:52:00,
2013-03-16 22:03:00,31.0,23.0,29.85,North,353,1.0,5.0,71,0.00,,,0.00,,2013-03-17 02:03:00,
2013-03-16 22:13:00,31.0,23.0,29.85,North,353,1.0,5.0,71,0.00,,,0.00,,2013-03-17 02:13:00,
2013-03-16 22:22:00,31.0,23.0,29.85,North,0,2.0,6.0,71,0.00,,,0.00,,2013-03-17 02:22:00,
2013-03-16 22:33:00,31.0,23.0,29.87,North,0,0.0,0.0,72,0.00,,,0.00,,2013-03-17 02:33:00,
2013-03-16 22:43:00,31.0,23.0,29.87,North,0,0.0,0.0,72,0.00,,,0.00,,2013-03-17 02:43:00,
2013-03-16 22:52:00,31.0,24.0,29.87,North,0,0.0,0.0,74,0.00,,,0.00,,2013-03-17 02:52:00,
2013-03-16 23:03:00,31.0,24.0,29.88,North,0,0.0,0.0,74,0.00,,,0.00,,2013-03-17 03:03:00,
2013-03-16 23:12:00,31.0,24.0,29.88,North,0,0.0,0.0,74,0.00,,,0.00,,2013-03-17 03:12:00,
2013-03-16 23:22:00,30.0,23.0,29.89,North,0,0.0,0.0,74,0.00,,,0.00,,2013-03-17 03:22:00,
2013-03-16 23:34:00,30.0,24.0,29.89,North,0,0.0,0.0,77,0.00,,,0.00,,2013-03-17 03:34:00,
2013-03-16 23:43:00,30.0,24.0,29.89,North,0,0.0,0.0,77,0.00,,,0.00,,2013-03-17 03:43:00,
2013-03-16 23:52:00,30.0,24.0,29.90,North,0,0.0,0.0,77,0.00,,,0.00,,2013-03-17 03:52:00,